Regional Weather Roundup
Issued by NWS Northern Indiana

Home | Current Version | Previous Version | Graphics & Text | Print | Product List | Glossary On
Versions: 1 2 3 4 5 6 7 8 9 10 11 12 13 14 15 16 17 18 19 20 21 22 23 24 25 26 27 28 29 30 31 32 33 34 35 36 37 38 39 40 41 42 43 44 45 46 47 48 49 50
000
ASUS43 KIWX 010310
RWRIWX

KIWX WEATHER ROUNDUP
NATIONAL WEATHER SERVICE NORTHERN INDIANA
1100 PM EDT THU JUL 31 2014

NOTE: "FAIR" INDICATES FEW OR NO CLOUDS BELOW 12,000 FEET WITH NO
SIGNIFICANT WEATHER AND/OR OBSTRUCTIONS TO VISIBILITY.

* THESE STATIONS ARE NOT UNDER NWS QUALITY CONTROL. THEY ALSO MAY NOT
  REPORT WEATHER SUCH AS PRECIPITATION OR FOG.

INZ001>027-010400-
NORTHERN INDIANA

CITY           SKY/WX    TMP DP  RH WIND       PRES   REMARKS
GARY*          PTCLDY    69  63  80 SW3       30.06R
VALPARAISO     CLEAR     69  61  75 SW7       30.06R
MICHIGAN CITY* CLEAR     68  59  73 CALM      30.05S
LAPORTE*       CLEAR     62  61  96 CALM      30.07R
KNOX*          CLEAR     63  59  87 S3        30.05S
SOUTH BEND     PTCLDY    68  60  75 S7        30.06R
GOSHEN         PTCLDY    68  62  81 CALM      30.06S
MONTICELLO*    CLEAR     67  63  86 S3        30.07R
LOGANSPORT*    CLEAR     63  59  88 CALM      30.08S
ROCHESTER*     PTCLDY    70  63  78 CALM      30.08S
WARSAW*        PTCLDY    68  61  77 S3        30.07S
ANGOLA*        CLEAR     64  61  88 CALM      30.08R
FORT WAYNE     MOCLDY    70  62  76 S3        30.09R
HUNTINGTON*    CLOUDY    67  63  85 CALM      30.07F
PERU/GRISSOM   CLEAR     65  65 100 S5        30.08S
MARION*        CLEAR     62  59  92 CALM      30.10S

$$
INZ028>050-010400-
CENTRAL INDIANA

CITY           SKY/WX    TMP DP  RH WIND       PRES   REMARKS
LAFAYETTE      CLEAR     66  63  90 CALM      30.08R
KOKOMO*        CLEAR     63  59  88 S3        30.09S
MUNCIE*        CLEAR     65  58  78 CALM      30.09S
INDIANAPOLIS   CLEAR     71  60  68 CALM      30.08S

$$
MIZ043>046-050>051-056>058-064>065-071>073-077>080-010400-
SOUTHWEST LOWER MICHIGAN

CITY           SKY/WX    TMP DP  RH WIND       PRES   REMARKS
BATTLE CREEK   PTCLDY    66  60  81 CALM      30.06R
BENTON HARBOR  CLEAR     64  60  87 CALM      30.04R
COLDWATER*     CLEAR     67  60  78 CALM      30.07R
HILLSDALE*     CLEAR     60  59  97 CALM      30.08R
HOLLAND        PTCLDY    67  59  75 S3        30.03S
GRAND RAPIDS   MOCLDY    67  62  84 S7        30.03S
KALAMAZOO      CLEAR     68  59  73 SW3       30.06R
STURGIS*       PTCLDY    63  59  88 CALM      30.06S
THREE RIVERS*  FAIR      66  62  86 SW3       30.06S

$$
OHZ001>008-015>018-024>025-010400-
NORTHWEST OHIO

CITY           SKY/WX    TMP DP  RH WIND       PRES   REMARKS
WAUSEON*       MOCLDY    66  61  82 SW5       30.07S
DEFIANCE       CLOUDY    67  62  84 CALM      30.08R
FINDLAY        MOCLDY    68  60  75 SW3       30.08R
TOLEDO EXPRESS CLEAR     65  60  84 SW3       30.06S
TOLEDO METCALF CLEAR     69  59  70 SW5       30.07R
LIMA           CLEAR     69  61  75 SW3       30.10R

$$
&&


USA.gov is the U.S. government's official web portal to all federal, state and local government web resources and services.